User: anonymous   Login
Location: Diebersbach
(48.5163°N, 8.0558°E)
Time: 18:37:42
(UTC+00:00)
Language:

Cosmos 1825 - Orbit

View from above orbital plane
View from above orbital plane
View from above satellite
View from above satellite

Ground track
Ground track

The orbit data is extracted from the following two-line orbital elements,

1 17566U 87024A   21263.84389723  .00001101  00000-0  48422-4 0  9991
2 17566  82.5075 184.4101 0003753 158.9083 201.2308 15.20842259890264
Epoch (UTC): 20 September 2021 20:15:12
Eccentricity: 0.0003753
inclination: 82.5075°
perigee height: 501 km
apogee height: 506 km
right ascension of ascending node: 184.4101°
argument of perigee: 158.9083°
revolutions per day: 15.20842259
mean anomaly at epoch: 201.2308°
orbit number at epoch: 89026

The dashed part of the orbit path shows where the satellite is in the earth's shadow,  

DLR